RH
100 98 100 99 99 100 89 93 92 99 99 98 100 100 100 100 98 99 100 99 97 100 98 95 93 72 31 20 16 9 6 5 4 4 3 3 3 3
94 99 99 100 100 97 97 98 100 100 93 100 99 99 100 100 98 98 96 93 91 95 96 81 62 28 16 9 6 5 4 3 3 3 3 3 4 5
92 97 98 98 93 99 100 99 98 100 100 99 100 98 97 98 98 97 98 98 96 88 48 23 16 10 6 5 4 4 3 3 3 5 7 8 8 8
80 82 90 95 100 100 92 99 100 100 99 99 98 97 97 99 97 97 96 96 78 18 13 7 5 4 4 3 3 3 5 8 10 11 12 14 14 14
86 88 95 86 100 99 98 99 99 98 98 96 96 92 93 97 97 87 38 17 12 6 5 4 4 4 4 7 9 12 13 17 21 23 23 23 23 24
84 84 99 100 99 99 98 98 98 97 92 93 97 99 93 40 18 16 11 7 6 5 4 4 6 13 20 19 20 25 26 25 22 20 22 25 27 30
79 83 99 99 98 99 96 94 91 90 94 100 65 21 18 14 9 7 7 6 5 5 7 14 22 27 32 33 32 28 24 21 21 26 26 28 31 34
96 99 97 93 96 90 86 96 100 97 26 19 17 12 9 8 7 6 5 6 6 26 28 29 40 37 33 28 28 24 24 26 28 28 26 25 28 34
99 98 96 83 87 92 81 31 20 15 11 9 8 7 6 6 6 6 7 15 27 37 38 36 38 29 36 38 31 29 26 26 30 29 26 28 31 34
86 68 63 38 22 18 13 10 8 7 6 5 4 4 5 6 6 16 28 31 41 48 43 34 38 42 49 45 42 31 32 37 39 40 38 36 39 39
24 20 15 11 9 8 6 4 3 2 2 3 4 5 6 14 23 29 39 44 43 48 51 42 43 46 48 49 54 58 53 49 50 50 49 49 45 47
9 8 6 5 3 2 2 2 2 3 4 4 6 14 22 28 36 41 43 40 42 44 53 45 44 45 40 48 52 60 67 71 68 70 68 68 65 58
2 2 2 2 2 2 2 3 3 4 6 13 18 24 32 40 43 44 40 36 44 54 68 57 50 54 48 47 52 61 71 72 70 70 68 69 69 68
2 2 2 2 2 2 3 3 6 14 17 20 27 34 41 46 46 46 48 49 54 60 68 69 58 64 61 55 55 65 76 69 68 74 71 71 74 77
2 2 2 2 3 3 4 13 19 21 25 30 36 41 46 49 50 54 57 59 69 79 88 92 80 69 67 62 60 71 83 72 82 72 67 67 71 75
2 2 2 3 3 8 18 21 23 26 32 37 41 46 50 50 51 54 54 53 54 62 77 84 68 59 64 67 66 74 91 83 83 76 72 77 81 88
2 2 3 4 12 19 22 24 27 33 37 40 43 48 50 51 55 53 53 52 53 54 63 61 38 37 53 66 67 87 81 78 74 75 80 79 97 96
3 3 7 17 21 23 25 28 33 39 42 45 48 51 52 56 58 59 53 49 54 65 66 52 45 42 47 63 78 82 86 73 68 71 78 76 88 97
5 10 19 23 26 28 31 36 41 44 47 50 53 54 55 58 56 49 47 48 58 66 66 68 56 47 50 53 63 95 79 75 74 74 84 85 84 90
17 22 26 30 32 33 36 41 46 48 51 54 56 56 57 52 48 47 47 49 52 57 63 72 54 46 67 66 45 66 98 91 84 76 75 78 84 92
27 32 37 40 38 39 43 48 52 55 58 58 59 59 54 50 51 53 53 53 52 58 64 61 37 37 74 73 54 59 84 96 92 84 79 77 77 78
34 39 45 47 44 45 50 57 66 69 70 67 62 62 55 58 61 62 64 62 57 58 63 57 37 32 63 78 59 58 73 90 98 95 96 92 77 68
40 47 53 53 48 52 63 70 72 74 76 78 77 71 64 64 66 65 65 67 65 59 56 58 57 42 58 72 65 58 67 87 85 85 97 97 92 88
Wind_Speed
49 50 52 47 44 41 43 45 46 48 49 50 54 51 53 55 47 53 53 51 53 51 52 49 52 51 51 51 52 53 54 55 56 57 58 59 59 59
45 42 46 42 46 40 46 46 46 48 52 54 54 48 50 51 48 48 49 48 47 47 48 50 51 52 52 53 54 56 57 58 58 58 57 56 54 53
42 41 43 43 43 49 44 41 48 48 57 50 51 49 45 44 44 47 45 45 48 47 47 50 51 53 54 56 57 59 58 56 55 52 49 47 47 46
41 41 39 40 39 44 43 44 43 49 45 43 43 41 41 40 43 45 46 47 48 46 48 51 52 53 54 55 55 54 50 46 44 43 43 43 44 45
39 39 38 41 39 41 46 42 46 45 37 42 40 39 41 43 45 45 44 44 45 45 48 50 51 51 49 47 45 41 40 41 43 44 46 48 48 49
32 36 35 38 39 39 45 46 39 40 36 34 37 43 45 42 41 42 43 44 44 44 47 47 43 40 37 37 37 39 41 44 47 48 48 47 47 48
32 36 33 38 41 39 35 30 29 31 35 40 42 41 40 40 42 43 45 45 43 42 40 35 34 32 34 36 37 40 42 44 45 44 43 42 41 42
35 31 28 28 28 28 27 30 33 38 37 39 41 41 41 42 43 42 41 40 35 26 28 24 29 31 33 35 33 36 38 40 40 38 38 38 40 41
21 19 17 20 25 27 32 33 35 38 40 43 42 40 41 39 39 34 30 26 23 25 29 30 31 33 31 28 30 33 35 37 37 36 37 38 38 39
8 15 21 24 28 31 33 35 38 41 42 43 42 37 33 29 25 21 20 23 24 25 32 35 30 31 27 24 25 28 32 35 37 37 36 37 38 37
16 21 24 27 32 36 38 39 40 39 35 29 24 20 17 15 16 18 22 25 27 24 29 33 30 34 26 22 22 24 27 30 33 35 37 38 38 40
21 26 30 34 37 38 36 32 26 21 15 12 9 8 10 13 17 21 24 27 30 29 34 31 29 36 31 20 21 23 25 27 31 34 35 37 37 39
28 31 32 31 30 27 23 17 12 9 5 4 6 10 13 16 19 22 25 27 28 29 34 38 32 33 35 33 20 24 26 27 31 31 32 35 36 37
24 24 23 22 19 17 14 10 7 4 3 6 9 11 14 17 18 21 25 27 28 29 30 37 39 38 38 35 32 25 26 28 29 30 30 29 30 31
23 23 21 19 15 12 10 8 6 6 7 8 11 13 15 16 19 20 23 25 26 28 31 35 39 39 38 38 38 31 34 25 25 26 27 28 29 30
24 22 20 16 12 10 9 9 7 8 9 11 13 15 15 16 20 22 23 25 26 27 30 33 35 38 36 35 37 36 32 33 27 27 29 26 26 27
24 20 16 13 11 10 9 9 9 10 11 13 14 15 16 16 19 23 26 28 30 29 27 31 36 38 36 33 32 32 33 28 28 25 24 21 18 21
20 16 13 12 12 12 12 11 11 12 13 16 16 16 16 18 19 23 27 30 31 30 30 31 34 35 33 31 29 27 23 25 23 21 21 19 13 17
17 14 13 13 13 13 13 14 15 15 16 18 18 17 17 19 22 23 26 28 29 31 31 33 36 39 39 35 28 26 29 25 25 23 24 24 22 18
17 15 15 15 15 15 15 15 16 17 18 19 19 19 19 20 22 24 26 29 31 31 31 32 35 37 36 36 36 27 26 28 27 25 24 24 22 21
18 17 17 16 16 16 16 16 16 18 19 19 19 19 20 20 22 24 26 29 32 34 33 32 33 34 33 33 33 29 25 26 28 28 25 28 25 19
18 18 17 17 17 16 16 16 17 19 20 21 21 21 21 22 23 25 28 30 32 34 35 33 33 35 34 33 33 32 28 24 25 27 25 24 27 29
19 18 18 17 17 16 16 17 19 21 22 22 23 23 23 23 26 27 29 32 34 35 36 35 36 36 33 32 32 33 31 30 27 26 23 24 26 29
Wind_Direction
252 261 251 250 256 259 263 267 272 276 274 277 279 279 274 276 282 279 273 280 279 279 281 284 283 284 285 286 285 285 284 283 283 283 282 281 280 279
263 267 258 247 252 259 264 267 271 274 273 275 271 279 279 278 277 276 278 279 279 280 282 281 283 286 287 287 286 285 285 285 286 286 285 284 282 280
258 261 266 267 248 267 263 270 274 274 283 278 285 283 280 281 280 281 279 281 282 284 284 286 287 287 287 287 287 287 287 288 287 287 287 286 285 283
258 260 266 267 278 269 283 273 274 279 290 287 287 282 280 280 278 279 282 284 286 287 287 286 287 288 289 288 287 287 288 289 289 288 286 285 283 280
258 264 268 271 265 273 272 283 285 288 283 283 285 284 284 280 279 285 287 286 287 290 290 291 291 290 289 287 287 290 290 288 288 288 287 285 282 280
262 265 264 266 272 275 280 282 284 282 283 284 283 279 279 283 286 287 287 291 293 292 291 290 290 287 288 289 290 289 289 289 289 288 287 287 287 285
268 264 272 277 280 287 284 282 278 279 279 278 281 283 289 292 291 292 295 294 294 294 289 289 288 290 289 289 292 292 291 289 287 286 288 290 289 287
261 263 273 279 280 278 275 274 277 279 281 286 288 292 292 292 293 295 294 293 295 290 288 290 287 289 293 294 294 289 285 284 285 288 290 290 289 286
256 268 278 274 273 280 279 279 284 286 288 289 294 295 297 299 297 298 299 301 301 302 300 297 301 301 298 302 294 288 285 284 285 286 287 286 285 284
278 270 270 278 278 279 285 290 291 295 297 297 299 302 302 301 302 305 304 304 307 310 305 302 306 300 305 305 298 288 284 286 289 288 286 285 285 283
269 277 281 284 287 288 291 295 295 294 296 299 302 304 305 305 306 308 309 311 310 312 304 308 312 307 314 312 304 295 291 290 286 286 287 286 287 287
288 287 287 288 290 292 293 292 291 293 298 303 309 305 305 310 313 314 315 316 315 317 312 316 319 316 315 315 307 304 301 297 291 291 291 289 287 285
292 291 292 291 289 288 289 288 290 285 286 291 301 310 312 312 313 314 316 319 320 319 315 317 324 320 320 323 320 312 308 301 295 293 288 287 289 289
300 299 295 291 290 290 286 275 250 231 265 284 293 299 302 306 309 315 318 320 322 321 320 318 320 321 322 324 324 322 313 308 302 297 295 293 292 292
316 308 301 296 289 276 256 229 227 243 262 280 293 297 301 303 306 311 313 317 320 319 320 319 319 319 320 323 322 327 319 314 305 300 298 298 297 293
318 311 302 291 273 246 231 239 253 272 286 292 295 296 300 301 304 310 312 313 316 318 319 316 317 317 319 321 321 321 318 315 312 310 307 307 302 296
317 306 293 273 253 249 256 265 272 279 287 291 295 297 301 304 309 313 315 317 318 319 320 320 320 319 317 318 317 315 312 308 307 311 309 314 310 303
316 299 277 258 257 260 269 278 285 294 300 302 302 301 304 307 310 311 314 318 321 322 322 323 323 318 312 310 314 314 307 307 306 308 310 311 314 313
311 291 274 273 274 280 287 293 299 303 305 305 303 302 304 307 311 314 315 317 320 322 324 325 326 324 320 318 322 328 319 316 310 307 304 302 301 301
309 295 287 284 285 287 289 293 299 303 306 309 306 306 309 312 313 315 319 320 321 323 328 327 324 322 319 318 325 330 316 308 306 304 304 300 302 301
302 296 291 289 287 287 289 294 299 301 306 310 307 306 308 311 314 318 320 322 323 325 328 327 326 322 319 314 317 320 319 306 305 303 304 303 302 296
295 290 290 288 285 286 291 296 301 304 307 310 307 306 307 309 311 316 319 322 323 324 324 325 328 328 326 319 318 318 321 311 302 300 298 296 296 298
289 289 292 290 288 290 295 300 304 305 307 306 305 304 303 303 307 312 316 319 320 321 321 327 332 331 328 319 317 319 320 318 308 303 302 296 291 293